[[{"header":{"parameterUnit":"m.s-1","parameterCategory":1,"la1":30.2991,"la2":30.254,"lo1":-89.0895,"lo2":-89.0444,"dy":0.0017,"dx":0.0017,"nx":28,"ny":28,"refTime":"2026-01-29T09:00:00:Z","depth":0,"parameterNumber":2,"parameterNumberName":"U-component_of_WINDS"},"data":[0,0,0,0,0,0,0,0,0,0,0,0,0,0,0,0,0,0,0,0,0,0,0,0,0,0,0,0,0,0,0,0,0,0,0,0,0,0,0,0,0,0,0,0,0,0,0,0,0,0,0,0,0,0,0,0,0,0,3.319,3.319,0,3.3202,3.3203,3.3203,3.3163,3.3162,3.3161,3.316,3.3172,3.3173,3.3175,0,0,0,0,0,0,0,0,0,0,0,0,0,3.3132,3.3133,3.3189,3.319,3.319,3.3202,3.3203,3.3203,3.3163,3.3162,3.316,3.3159,3.3172,3.3173,3.3175,0,0,0,0,0,0,0,0,0,0,0,0,0,3.3152,3.3133,3.3189,3.3172,3.317,3.3202,3.3203,3.3203,3.3164,3.3162,3.316,3.3158,3.3171,3.3173,3.3175,3.3225,0,0,3.3182,3.3183,0,0,0,0,0,0,0,0,3.3151,3.3154,3.3174,3.3173,3.3171,3.3179,3.3187,3.321,3.3164,3.3166,3.316,3.3157,3.3176,3.3178,3.3184,3.3225,3.3226,3.3182,3.3183,3.3184,3.3185,0,0,0,0,0,0,0,3.3149,3.3153,3.3195,3.3175,3.3173,3.3163,3.3164,3.3191,3.3181,3.3166,3.3163,3.3165,3.3175,3.3182,3.3184,3.3226,3.3182,3.3184,3.3185,3.3186,3.3311,3.3313,0,0,0,0,0,0,3.315,3.3152,3.3194,3.3195,3.3156,3.3166,3.3167,3.3179,3.3181,3.3179,3.3167,3.3163,3.3179,3.3181,3.3184,3.3243,3.3184,3.3186,3.3188,3.3309,3.3312,3.3314,0,0,0,0,0,0,3.3149,3.3154,3.3194,3.3173,3.3177,3.3169,3.3182,3.318,3.3187,3.3181,3.3179,3.3176,3.3178,3.3181,3.3216,3.3243,3.3187,3.3189,3.3307,3.331,3.3313,3.3362,0,0,0,0,0,0,3.3148,3.3154,3.3173,3.3174,3.3178,3.3225,3.3184,3.3181,3.3191,3.3186,3.3189,3.3188,3.3177,3.3213,3.3218,3.3245,3.3191,3.3304,3.3308,3.3312,3.3358,3.3366,3.3373,0,0,0,0,0,3.3146,3.3185,3.3174,3.3179,3.3201,3.3226,3.3229,3.3215,3.3193,3.3212,3.3209,3.3188,3.324,3.3216,3.3222,3.325,3.3302,3.3307,3.3312,3.3354,3.3364,3.3373,0,0,0,0,0,0,3.3186,3.3185,3.3172,3.3213,3.322,3.3219,3.3242,3.3226,3.324,3.3235,3.3218,3.3219,3.3257,3.3257,3.3231,3.33,3.3267,3.3273,3.3298,3.3307,3.3315,3.3314,3.3193,0,0,0,0,0,3.3201,3.3221,3.3218,3.3255,3.3259,3.3251,3.3261,3.325,3.3257,3.3259,3.3258,3.3266,3.3284,3.3296,3.3312,3.3358,3.3359,3.3381,3.3388,3.3395,3.34,3.3426,3.3436,3.3329,3.3329,3.3329,0,0,3.3229,3.3231,3.3244,3.3263,3.3267,3.3289,3.3253,3.3277,3.3294,3.3263,3.3295,3.3296,3.3302,3.3344,3.3361,3.3345,3.343,3.3401,3.3406,3.3407,3.3432,3.3442,3.3451,3.3332,3.3331,3.3331,0,0,3.3292,3.3295,3.3327,3.3332,3.334,3.3334,3.3342,3.3344,3.3343,3.3376,3.3354,3.3374,3.3405,3.3411,3.3418,3.3488,3.3469,3.3493,3.3534,3.356,3.3568,3.3575,3.3601,3.361,3.3499,3.3499,3.3499,0,3.3326,3.3358,3.3344,3.3371,3.3381,3.3355,3.3387,3.3393,3.3406,3.3413,3.3395,3.3435,3.3438,3.348,3.3498,3.3504,3.3513,3.3492,3.3568,3.3575,3.3582,3.3606,3.3615,3.3502,3.3501,3.3501,3.3501,0,3.3401,3.3424,3.3448,3.3462,3.3474,3.3503,3.3495,3.3509,3.3498,3.3495,3.353,3.3533,3.355,3.3559,3.3548,3.3601,3.3591,3.3571,3.3538,3.3595,3.3618,3.3627,3.3506,3.3505,3.3504,3.3503,0,0,3.3487,3.3495,3.3504,3.3511,3.3519,3.3537,3.3566,3.3583,3.3596,3.3606,3.3631,3.3659,3.3641,3.365,3.3639,3.3662,3.3718,3.3639,3.3639,3.3654,3.3778,3.3793,3.3804,3.3706,3.3708,3.3709,3.3777,0,3.355,3.3599,3.3589,3.3638,3.366,3.3638,3.3663,3.3671,3.367,3.3688,3.3686,3.3707,3.3681,3.3687,3.3708,3.3707,3.3742,3.3702,3.3729,3.373,3.3727,3.3815,3.383,3.3894,3.3786,3.3787,3.3788,0,3.3629,3.3643,3.3695,3.3701,3.371,3.3733,3.3749,3.3767,3.3777,3.3774,3.3785,3.3772,3.3801,3.3769,3.381,3.3783,3.3793,3.3795,3.3797,3.3798,3.3762,3.3819,3.3914,3.3924,3.3802,3.3801,3.38,0,3.3688,3.372,3.3755,3.3762,3.377,3.3787,3.3791,3.3799,3.3811,3.3826,3.3834,3.3851,3.3861,3.3875,3.3867,3.3844,3.391,3.3877,3.3909,3.391,3.3923,3.3922,3.4022,3.3931,3.3931,3.3931,3.393,0,3.3758,3.3791,3.3782,3.3804,3.384,3.3829,3.3865,3.3867,3.3875,3.3897,3.3879,3.39,3.3888,3.3909,3.3903,3.3938,3.3943,3.3942,3.394,3.3943,3.3943,3.3949,3.3945,3.3933,3.3933,3.3932,3.3932,0,3.3829,3.3825,3.3862,3.3868,3.387,3.3897,3.3902,3.3923,3.3921,3.3949,3.3955,3.3952,3.3976,3.397,3.3995,3.3991,3.4036,3.4028,3.4033,3.4031,3.4064,3.4061,3.417,3.4184,3.4085,3.4086,3.4087,0,3.3874,3.3899,3.3908,3.3922,3.3928,3.3951,3.3963,3.3954,3.3968,3.3982,3.4002,3.4024,3.4041,3.408,3.408,3.41,3.4093,3.413,3.4095,3.4099,3.4093,3.4092,3.4095,3.4136,3.4137,3.4138,3.4139,0,3.3955,3.3952,3.3971,3.3991,3.4007,3.4022,3.4035,3.4047,3.4039,3.4056,3.408,3.4094,3.4121,3.4144,3.4162,3.4167,3.4152,3.415,3.4159,3.4162,3.4164,3.4164,3.4052,3.4147,3.4146,3.4146,3.4145,3.4145,3.4014,3.4036,3.4047,3.4069,3.4079,3.4092,3.4112,3.4114,3.4134,3.4156,3.4149,3.4178,3.4188,3.4212,3.4219,3.4242,3.4227,3.424,3.4243,3.4246,3.425,3.4161,3.4245,3.4245,3.4244,3.4244,3.4244,0,3.4094,3.4101,3.4122,3.4142,3.416,3.4146,3.416,3.4176,3.4201,3.4213,3.4231,3.426,3.4283,3.4286,3.4307,3.4325,3.4318,3.4331,3.4329,3.433,3.4261,3.4252,3.4335,3.4335,3.4335,3.4335,3.4335,3.4335,3.4138,3.4175,3.4174,3.4215,3.4221,3.4249,3.4259,3.4271,3.4281,3.4314,3.4333,3.4336,3.4344,3.4367,3.4387,3.4388,3.4396,3.4411,3.4409,3.4344,3.4335,3.4326,3.4317,3.4413,3.4413,3.4476,3.4477,3.4477]},{"header":{"parameterUnit":"m.s-1","parameterCategory":1,"la1":30.2991,"la2":30.254,"lo1":-89.0895,"lo2":-89.0444,"dy":0.0017,"dx":0.0017,"nx":28,"ny":28,"refTime":"2026-01-29T09:00:00:Z","depth":0,"parameterNumber":3,"parameterNumberName":"V-component_of_WINDS"},"data":[0,0,0,0,0,0,0,0,0,0,0,0,0,0,0,0,0,0,0,0,0,0,0,0,0,0,0,0,0,0,0,0,0,0,0,0,0,0,0,0,0,0,0,0,0,0,0,0,0,0,0,0,0,0,0,0,0,0,-9.5417,-9.5419,0,-9.5618,-9.562,-9.5622,-9.5554,-9.555,-9.5546,-9.5541,-9.574,-9.5749,-9.5759,0,0,0,0,0,0,0,0,0,0,0,0,0,-9.4969,-9.4977,-9.5417,-9.5419,-9.5422,-9.5618,-9.562,-9.5623,-9.5555,-9.555,-9.5544,-9.5539,-9.5737,-9.5748,-9.5759,0,0,0,0,0,0,0,0,0,0,0,0,0,-9.5166,-9.498,-9.5416,-9.5412,-9.5413,-9.5617,-9.562,-9.5624,-9.5556,-9.555,-9.5543,-9.5537,-9.5733,-9.5747,-9.5761,-9.5979,0,0,-9.5804,-9.581,0,0,0,0,0,0,0,0,-9.5155,-9.5182,-9.541,-9.5412,-9.5415,-9.5554,-9.5535,-9.5743,-9.5558,-9.5502,-9.5541,-9.5534,-9.5683,-9.5701,-9.5753,-9.5988,-9.5997,-9.5805,-9.5814,-9.582,-9.5824,0,0,0,0,0,0,0,-9.5141,-9.5173,-9.5496,-9.5413,-9.5416,-9.5398,-9.5419,-9.5574,-9.5627,-9.5506,-9.5502,-9.5527,-9.5683,-9.574,-9.5757,-9.6,-9.5805,-9.5817,-9.5826,-9.5831,-9.6425,-9.6432,0,0,0,0,0,0,-9.5127,-9.5162,-9.549,-9.5502,-9.5266,-9.5411,-9.5434,-9.5516,-9.5625,-9.5635,-9.5532,-9.5523,-9.5719,-9.5741,-9.5764,-9.6027,-9.582,-9.5833,-9.5841,-9.6418,-9.6427,-9.6435,0,0,0,0,0,0,-9.5118,-9.5157,-9.5481,-9.5331,-9.5371,-9.5426,-9.5518,-9.5523,-9.558,-9.5645,-9.5653,-9.5581,-9.5714,-9.5744,-9.5927,-9.6033,-9.5839,-9.5852,-9.641,-9.6421,-9.6431,-9.6556,0,0,0,0,0,0,-9.5105,-9.5154,-9.5239,-9.5334,-9.538,-9.5643,-9.5525,-9.5532,-9.5605,-9.5595,-9.5692,-9.5702,-9.5712,-9.5906,-9.5941,-9.6049,-9.5863,-9.64,-9.6415,-9.6428,-9.6542,-9.657,-9.6593,0,0,0,0,0,-9.5089,-9.5264,-9.5243,-9.5283,-9.5487,-9.565,-9.5676,-9.5685,-9.5614,-9.5699,-9.5741,-9.5699,-9.6016,-9.5926,-9.5964,-9.6078,-9.6393,-9.641,-9.6427,-9.6531,-9.6564,-9.6592,0,0,0,0,0,0,-9.5177,-9.5276,-9.5254,-9.5465,-9.555,-9.5638,-9.5745,-9.572,-9.5825,-9.581,-9.5816,-9.5838,-9.6027,-9.607,-9.5968,-9.6295,-9.6194,-9.6219,-9.626,-9.6292,-9.6317,-9.6302,-9.5875,0,0,0,0,0,-9.5221,-9.5347,-9.5426,-9.5604,-9.5648,-9.569,-9.5761,-9.5762,-9.5848,-9.5883,-9.5938,-9.6022,-9.6141,-9.6219,-9.6331,-9.6548,-9.6568,-9.6646,-9.6671,-9.6691,-9.6713,-9.6831,-9.6867,-9.6489,-9.6489,-9.6489,0,0,-9.5313,-9.5383,-9.5461,-9.5624,-9.5689,-9.5818,-9.572,-9.586,-9.5956,-9.5903,-9.6081,-9.6124,-9.6218,-9.642,-9.6511,-9.6462,-9.6822,-9.6712,-9.6728,-9.6739,-9.6852,-9.6888,-9.692,-9.6501,-9.6498,-9.6497,0,0,-9.5546,-9.5612,-9.5768,-9.5837,-9.5939,-9.5966,-9.6004,-9.6097,-9.6125,-9.6303,-9.6267,-9.6379,-9.6583,-9.6653,-9.6715,-9.6977,-9.6942,-9.7013,-9.7145,-9.7261,-9.7291,-9.7317,-9.7411,-9.7445,-9.7034,-9.7035,-9.7035,0,-9.5647,-9.5842,-9.5851,-9.5996,-9.6068,-9.603,-9.6188,-9.6254,-9.6386,-9.6436,-9.638,-9.6637,-9.6698,-9.6915,-9.698,-9.7031,-9.7073,-9.7002,-9.7286,-9.7313,-9.7337,-9.7427,-9.7462,-9.7043,-9.7042,-9.7041,-9.704,0,-9.5961,-9.6097,-9.621,-9.6343,-9.6428,-9.6578,-9.661,-9.6694,-9.6688,-9.672,-9.6903,-9.6974,-9.7102,-9.7153,-9.7147,-9.7371,-9.7337,-9.7284,-9.7182,-9.7381,-9.7466,-9.75,-9.7054,-9.7051,-9.7049,-9.7047,0,0,-9.6253,-9.6392,-9.6433,-9.6494,-9.6604,-9.6708,-9.6857,-9.6984,-9.7057,-9.715,-9.7274,-9.7449,-9.7401,-9.7472,-9.7473,-9.7574,-9.7778,-9.7508,-9.7511,-9.7556,-9.803,-9.807,-9.8109,-9.7756,-9.7763,-9.7768,-9.8022,0,-9.6496,-9.676,-9.6774,-9.7013,-9.7139,-9.7105,-9.7235,-9.7316,-9.735,-9.746,-9.7497,-9.7622,-9.7549,-9.7591,-9.769,-9.7733,-9.7873,-9.7714,-9.7871,-9.7876,-9.7849,-9.8153,-9.8196,-9.8432,-9.8055,-9.8061,-9.8065,0,-9.6815,-9.6922,-9.7174,-9.7269,-9.7322,-9.7438,-9.7557,-9.7663,-9.7754,-9.7772,-9.7852,-9.7839,-9.799,-9.7884,-9.8091,-9.7983,-9.8048,-9.8078,-9.8087,-9.8102,-9.7983,-9.8176,-9.8507,-9.8543,-9.8116,-9.8112,-9.8109,0,-9.7004,-9.721,-9.7388,-9.7441,-9.7555,-9.7638,-9.7689,-9.7774,-9.785,-9.7953,-9.8003,-9.8121,-9.8185,-9.8276,-9.8295,-9.8216,-9.8503,-9.8398,-9.8521,-9.8521,-9.8583,-9.8579,-9.8929,-9.8625,-9.8624,-9.8624,-9.8623,0,-9.7274,-9.743,-9.7475,-9.7585,-9.7758,-9.7772,-9.7943,-9.7988,-9.8064,-9.8181,-9.8158,-9.8267,-9.8286,-9.8399,-9.8415,-9.8584,-9.8613,-9.8631,-9.8633,-9.8634,-9.8632,-9.8676,-9.866,-9.8633,-9.8631,-9.8629,-9.8628,0,-9.7515,-9.7551,-9.7744,-9.7837,-9.7865,-9.7988,-9.8068,-9.8172,-9.8205,-9.8353,-9.8388,-9.8439,-9.8571,-9.86,-9.8755,-9.8766,-9.8968,-9.8954,-9.8938,-9.8937,-9.9059,-9.9047,-9.945,-9.9503,-9.9164,-9.9167,-9.917,0,-9.7685,-9.7805,-9.7912,-9.799,-9.8046,-9.8172,-9.825,-9.8268,-9.8351,-9.8465,-9.8556,-9.8686,-9.8792,-9.9004,-9.9054,-9.9173,-9.9162,-9.9295,-9.9179,-9.9176,-9.9164,-9.9157,-9.9169,-9.9316,-9.932,-9.9323,-9.9325,0,-9.7983,-9.7996,-9.8111,-9.8235,-9.833,-9.8427,-9.8519,-9.8583,-9.8614,-9.8708,-9.8845,-9.8927,-9.9088,-9.9218,-9.9338,-9.9387,-9.9362,-9.9362,-9.9397,-9.9398,-9.9385,-9.9394,-9.8999,-9.9352,-9.9349,-9.9348,-9.9346,-9.9345,-9.8194,-9.8299,-9.8393,-9.8522,-9.8594,-9.8682,-9.8785,-9.8832,-9.8948,-9.9082,-9.9085,-9.9235,-9.9323,-9.9482,-9.954,-9.9656,-9.9614,-9.9664,-9.9677,-9.969,-9.9701,-9.9367,-9.9677,-9.9677,-9.9676,-9.9675,-9.9675,0,-9.8491,-9.855,-9.867,-9.8801,-9.8904,-9.8874,-9.8974,-9.9061,-9.9194,-9.928,-9.9385,-9.9543,-9.9669,-9.9729,-9.9854,-9.9935,-9.9926,-9.9967,-9.9961,-9.9973,-9.9731,-9.9689,-9.9972,-9.9972,-9.9972,-9.9972,-9.9972,-9.9972,-9.8658,-9.8836,-9.886,-9.9073,-9.913,-9.9278,-9.9339,-9.9419,-9.9488,-9.9666,-9.9772,-9.9811,-9.9887,-10.0017,-10.0131,-10.0145,-10.0192,-10.0239,-10.0247,-10.002,-9.999,-9.9961,-9.9921,-10.0249,-10.0249,-10.048,-10.0482,-10.0484]}]]